Terminal Aerodrome Forecast
Issued by NWS

Home | Current Version | Previous Version | Graphics & Text | Print | Product List | Glossary Off
Versions: 1 2 3 4 5 6 7 8 9 10 11 12 13 14 15 16 17 18 19 20 21 22 23 24 25 26 27 28 29 30 31 32 33 34 35 36 37 38 39 40 41 42 43 44 45 46 47 48 49 50

000
FTUS43 KDDC 272146 CCA
TAFGCK
TAF COR
KGCK 272146Z 2722/2818 03010KT P6SM VCTS SCT030CB BKN060
      TEMPO 2722/2724 VRB20G40KT 1SM +TSRA BKN020CB BKN050
     FM280000 15013KT P6SM SCT050 BKN090=

USA.gov is the U.S. government's official web portal to all federal, state and local government web resources and services.